[[{"header":{"parameterUnit":"m.s-1","parameterCategory":1,"la1":30.2992,"la2":30.254,"lo1":-89.0895,"lo2":-89.0443,"dy":0.0025,"dx":0.0025,"nx":19,"ny":19,"refTime":"2026-05-16T03:00:00:Z","depth":0,"parameterNumber":2,"parameterNumberName":"U-component_of_WINDS"},"data":[0,0,0,-2.2164,-2.2165,-2.221,-2.221,-2.2274,-2.2275,0,0,0,0,0,0,0,0,0,0,0,-2.2155,-2.2155,-2.2163,-2.2165,-2.221,-2.221,-2.2274,-2.2275,0,0,0,0,0,0,0,0,0,0,0,-2.2154,-2.2155,-2.2156,-2.2165,-2.221,-2.221,-2.2274,-2.2237,0,0,0,0,0,0,0,0,0,0,-2.2192,-2.2188,-2.2155,-2.2156,-2.2165,-2.221,-2.221,-2.2235,-2.224,-2.2256,0,-2.2273,0,-2.2275,-2.2279,-2.228,0,0,0,-2.2161,-2.2185,-2.2193,-2.2156,-2.2166,-2.221,-2.2188,-2.2238,-2.2242,-2.2262,-2.2274,-2.2276,-2.2276,-2.228,-2.228,-2.2389,-2.239,0,0,-2.2159,-2.2165,-2.219,-2.2197,-2.219,-2.2187,-2.219,-2.224,-2.2254,-2.2274,-2.2277,-2.2277,-2.228,-2.2281,-2.2388,-2.2389,0,0,0,-2.2154,-2.2163,-2.217,-2.2194,-2.2202,-2.2188,-2.2192,-2.2251,-2.2253,-2.2278,-2.2278,-2.2281,-2.2282,-2.2388,-2.2389,-2.2427,0,0,0,-2.2152,-2.216,-2.2169,-2.2173,-2.2201,-2.2227,-2.2202,-2.225,-2.2255,-2.2278,-2.2281,-2.2282,-2.2387,-2.2388,-2.2424,-2.2444,0,0,0,-2.215,-2.216,-2.2168,-2.2174,-2.2193,-2.2226,-2.2231,-2.2251,-2.2255,-2.228,-2.2283,-2.2386,-2.2388,-2.2422,-2.244,-2.2473,0,0,0,-2.2149,-2.2202,-2.2169,-2.2227,-2.2193,-2.225,-2.223,-2.2273,-2.2298,-2.2281,-2.2387,-2.2388,-2.2421,-2.2437,-2.2471,-2.2502,-2.2516,0,0,-2.2219,-2.2211,-2.2244,-2.2216,-2.228,-2.2243,-2.2312,-2.233,-2.2327,-2.2368,-2.2371,-2.2425,-2.2439,-2.2473,-2.2592,-2.2603,0,0,0,-2.2269,-2.2293,-2.2309,-2.2333,-2.2348,-2.2362,-2.2369,-2.2375,-2.241,-2.235,-2.2446,-2.2455,-2.2474,-2.2489,-2.2498,-2.2514,-2.2396,-2.2396,-2.2395,-2.2376,-2.2368,-2.2424,-2.2422,-2.2446,-2.2452,-2.2471,-2.248,-2.2467,-2.249,-2.2501,-2.2575,-2.2592,-2.2599,-2.2616,-2.2518,-2.2518,-2.2518,-2.2518,-2.2476,-2.2509,-2.2489,-2.2535,-2.2527,-2.2566,-2.2574,-2.2562,-2.2597,-2.2566,-2.2582,-2.2548,-2.2612,-2.2626,-2.2521,-2.2521,-2.252,-2.252,-2.252,-2.2545,-2.2559,-2.2566,-2.2601,-2.2628,-2.2624,-2.2658,-2.265,-2.2642,-2.2659,-2.267,-2.2669,-2.2667,-2.2665,-2.2665,-2.2665,-2.2666,-2.2666,-2.2666,-2.2613,-2.262,-2.2649,-2.2669,-2.2683,-2.2701,-2.2707,-2.2721,-2.2734,-2.2725,-2.2725,-2.2708,-2.262,-2.2597,-2.267,-2.2669,-2.2669,-2.2668,-2.2668,-2.2717,-2.2692,-2.2738,-2.2752,-2.2774,-2.2801,-2.279,-2.2818,-2.2828,-2.2845,-2.2825,-2.2761,-2.2751,-2.2744,-2.2725,-2.2827,-2.2827,-2.2827,-2.2827,-2.2774,-2.2769,-2.2813,-2.2836,-2.2858,-2.2852,-2.2903,-2.2908,-2.2909,-2.2915,-2.2899,-2.2874,-2.2866,-2.2861,-2.2851,-2.2833,-2.296,-2.296,-2.2961,-2.2837,-2.2833,-2.2878,-2.2879,-2.2895,-2.2909,-2.2957,-2.2984,-2.298,-2.2966,-2.2919,-2.2913,-2.2872,-2.2859,-2.2844,-2.2828,-2.2796,0,0]},{"header":{"parameterUnit":"m.s-1","parameterCategory":1,"la1":30.2992,"la2":30.254,"lo1":-89.0895,"lo2":-89.0443,"dy":0.0025,"dx":0.0025,"nx":19,"ny":19,"refTime":"2026-05-16T03:00:00:Z","depth":0,"parameterNumber":3,"parameterNumberName":"V-component_of_WINDS"},"data":[0,0,0,3.4896,3.4899,3.5034,3.5034,3.521,3.5211,0,0,0,0,0,0,0,0,0,0,0,3.486,3.4861,3.4895,3.4899,3.5034,3.5034,3.5209,3.5211,0,0,0,0,0,0,0,0,0,0,0,3.4859,3.4861,3.4863,3.4899,3.5034,3.5034,3.5209,3.5106,0,0,0,0,0,0,0,0,0,0,3.4974,3.4946,3.486,3.4863,3.49,3.5034,3.5035,3.5101,3.5112,3.5151,0,3.5188,0,3.5203,3.5224,3.5224,0,0,0,3.4895,3.4936,3.4969,3.4863,3.4902,3.5033,3.4972,3.5107,3.512,3.5166,3.5191,3.5197,3.5206,3.5225,3.5226,3.5465,3.5466,0,0,3.4888,3.4886,3.496,3.4978,3.496,3.4968,3.4976,3.5115,3.5141,3.5191,3.5201,3.5209,3.5226,3.5227,3.5464,3.5465,0,0,0,3.4869,3.4881,3.491,3.497,3.4995,3.4972,3.4981,3.5135,3.5144,3.5203,3.5211,3.5227,3.5229,3.5462,3.5464,3.5526,0,0,0,3.4864,3.487,3.4907,3.4907,3.4992,3.5067,3.4998,3.5135,3.515,3.521,3.5227,3.5231,3.5461,3.5463,3.5522,3.5555,0,0,0,3.4849,3.4868,3.4889,3.4907,3.4965,3.5065,3.5082,3.5138,3.5156,3.5224,3.5231,3.546,3.5463,3.5517,3.5548,3.5616,0,0,0,3.4833,3.4943,3.489,3.5016,3.4964,3.5103,3.5082,3.5185,3.5251,3.5228,3.5461,3.5464,3.5516,3.5544,3.5612,3.5672,3.5698,0,0,3.497,3.4959,3.5033,3.499,3.5138,3.5083,3.5239,3.5301,3.5308,3.5412,3.5417,3.5523,3.5548,3.5615,3.5846,3.5866,0,0,0,3.5076,3.5129,3.5168,3.5233,3.5284,3.5329,3.5367,3.539,3.5478,3.5362,3.5567,3.5582,3.5622,3.565,3.5668,3.5701,3.5478,3.5478,3.5477,3.5267,3.5271,3.5393,3.5413,3.5476,3.5514,3.5564,3.56,3.5586,3.5634,3.5664,3.5804,3.5838,3.5851,3.5885,3.5698,3.5699,3.5699,3.5699,3.5467,3.5541,3.552,3.563,3.5633,3.5725,3.5766,3.5752,3.5836,3.5782,3.5817,3.5755,3.5873,3.5903,3.5704,3.5703,3.5702,3.5702,3.5702,3.559,3.5627,3.5654,3.5746,3.5816,3.5832,3.5914,3.5914,3.5914,3.5949,3.598,3.5979,3.5976,3.5964,3.5965,3.5965,3.5966,3.5966,3.5966,3.5708,3.5736,3.5806,3.5869,3.5909,3.5962,3.6001,3.604,3.6083,3.6076,3.6076,3.6055,3.5885,3.5841,3.5974,3.5972,3.5972,3.5971,3.597,3.5905,3.5861,3.5969,3.6009,3.6082,3.615,3.615,3.6229,3.6261,3.63,3.6273,3.6148,3.6135,3.6122,3.6085,3.6273,3.6273,3.6273,3.6273,3.6008,3.6003,3.6113,3.6177,3.624,3.625,3.6369,3.64,3.6424,3.6444,3.6417,3.6369,3.6355,3.6351,3.6332,3.6298,3.6536,3.6536,3.6536,3.6129,3.613,3.6232,3.6257,3.6313,3.6361,3.6472,3.6545,3.6563,3.6547,3.6458,3.6447,3.637,3.6345,3.6325,3.6296,3.6233,0,0]}]]